Regional Weather Roundup
Issued by NWS

Home | Current Version | Previous Version | Graphics & Text | Print | Product List | Glossary On
Versions: 1 2 3 4 5 6 7 8 9 10 11 12 13 14 15 16 17 18 19 20 21 22 23 24 25 26 27
000
ASUS45 KCYS 250910
RWRWY

WYOMING REGIONAL WEATHER ROUNDUP
NATIONAL WEATHER SERVICE CHEYENNE WY
300 AM MDT TUE APR 25 2017

NOTE:  "FAIR" INDICATES FEW OR NO CLOUDS BELOW 12,000 FEET
WITH NO SIGNIFICANT WEATHER AND/OR OBSTRUCTIONS TO VISIBILITY.

WYZ001-251000-
YELLOWSTONE NATIONAL PARK

CITY           SKY/WX    TMP DP  RH WIND       PRES   REMARKS
LK YELLOWSTONE   N/A     28  27  96 CALM      29.64S
W YELLOWSTONE  NOT AVBL

$$
WYZ002>013-054>058-071-098>099-251000-
NORTHERN WYOMING

CITY           SKY/WX    TMP DP  RH WIND       PRES   REMARKS
JACKSON        CLOUDY    34  34 100 S9        29.64F WCI  26
CODY           LGT RAIN  37  34  89 NW12      29.61S WCI  29
GREYBULL       CLOUDY    43  36  76 NW17G32   29.51S
WORLAND        LGT RAIN  42  40  92 NW21G29   29.51S
SHERIDAN       LGT SNOW  33  32  96 NW10      29.62S VSB 1   WCI  25
BUFFALO        SNOW      34  31  88 NW23G35   29.54F VSB 1/2 WCI  22
GILLETTE       RAIN      39  39 100 NE22      29.48F WCI  29
HULETT         LGT SNOW  34  32  93 E15       29.59S WCI  24
NEWCASTLE      DRIZZLE   41  36  81 E18G25    29.52F

$$
WYZ014>020-022>026-101>103-251000-
CENTRAL WYOMING

CITY           SKY/WX    TMP DP  RH WIND       PRES   REMARKS
BIG PINEY      FAIR      29  24  82 N7        29.67S WCI  22
PINEDALE       CLOUDY    30  30 100 NW5       29.67S WCI  25
DUBOIS         FAIR      32  25  74 NW16      29.58S WCI  21
LANDER         FAIR      37  30  75 CALM      29.53F
RIVERTON       MOCLDY    38  38 100 SE5       29.55S WCI  34
CASPER         FLURRIES  35  34  96 W13       29.53R WCI  26
DOUGLAS        CLOUDY    43  38  82 SW8       29.50F

$$
WYZ021-027>030-104>119-251000-
SOUTHERN WYOMING

CITY           SKY/WX    TMP DP  RH WIND       PRES   REMARKS
EVANSTON       FOG       31  31 100 SW13      29.72  VSB 3/4 WCI  21
KEMMERER         N/A     32  30  93 W10G16    29.70F WCI  24
FORT BRIDGER   FAIR      33  33 100 W17G24    29.72F WCI  22
ROCK SPRINGS   FAIR      33  27  78 SW14      29.68S WCI  23
DIXON            N/A     37  32  84 SW10      29.73S WCI  29
RAWLINS        FAIR      33  29  85 SW18G30   29.61S WCI  22
SARATOGA       CLOUDY    34  32  93 W12G20    29.66S WCI  25
LARAMIE        NOT AVBL
CHEYENNE       MOCLDY    39  33  79 CALM      29.58R
TORRINGTON     FAIR      43  42  97 SE7       29.52R
PINE BLUFFS    CLOUDY    41  37  87 W5        29.56F

$$




USA.gov is the U.S. government's official web portal to all federal, state and local government web resources and services.